CLF2 LFPB-LIPR

Flight info

Callsign CLF2
Flight time N/A
Altitude 33000
Route BUBLI DCT LUVAL/N0431F410 DCT SHARA DCT DEVDI DCT ODINA DCT SRN DCT ROBAS DCT OSBUL DCT IPLUB DCT LOMED M730 BAGNO
Aircraft C25C/M-SDE2E3FGHRWXY/LB1

Departure

Time 2026-04-24 13:24
Airport Paris-Le Bourget International Airport (LFPB)

Arrival

Time N/A
Airport Federico Fellini International Airport (LIPR)
Time Latitude Longitude Altitude Speed Heading
2026-04-24 13:13 48.95068 2.43531 146 ft 0 kts 358°
2026-04-24 13:16 48.95078 2.43533 145 ft 3 kts 17°
2026-04-24 13:16 48.95101 2.43547 146 ft 4 kts 21°
2026-04-24 13:16 48.95124 2.43557 146 ft 3 kts
2026-04-24 13:17 48.95145 2.43536 146 ft 4 kts 296°
2026-04-24 13:17 48.95160 2.43484 147 ft 7 kts 296°
2026-04-24 13:17 48.95182 2.43412 147 ft 8 kts 294°
2026-04-24 13:17 48.95215 2.43331 148 ft 10 kts 327°
2026-04-24 13:18 48.95275 2.43341 149 ft 9 kts 26°
2026-04-24 13:18 48.95337 2.43384 149 ft 10 kts 25°
2026-04-24 13:18 48.95404 2.43433 149 ft 11 kts 27°
2026-04-24 13:18 48.95476 2.43480 149 ft 12 kts 24°
2026-04-24 13:19 48.95552 2.43536 149 ft 12 kts 25°
2026-04-24 13:19 48.95633 2.43591 150 ft 13 kts 24°
2026-04-24 13:19 48.95719 2.43653 150 ft 14 kts 25°
2026-04-24 13:19 48.95802 2.43647 151 ft 13 kts 301°
2026-04-24 13:20 48.95832 2.43545 158 ft 8 kts 294°
2026-04-24 13:20 48.95854 2.43476 159 ft 8 kts 294°
2026-04-24 13:20 48.95882 2.43383 158 ft 12 kts 295°
2026-04-24 13:20 48.95921 2.43254 157 ft 15 kts 295°
2026-04-24 13:21 48.95978 2.43088 151 ft 20 kts 307°
2026-04-24 13:21 48.96074 2.42908 147 ft 23 kts 308°
2026-04-24 13:21 48.96171 2.42722 151 ft 21 kts 307°
2026-04-24 13:21 48.96257 2.42553 155 ft 20 kts 295°
2026-04-24 13:22 48.96265 2.42338 153 ft 12 kts 267°
2026-04-24 13:22 48.96263 2.42240 153 ft 5 kts 269°
2026-04-24 13:22 48.96263 2.42221 153 ft 3 kts 271°
2026-04-24 13:22 48.96264 2.42156 154 ft 10 kts 271°
2026-04-24 13:23 48.96316 2.42057 152 ft 17 kts 347°
2026-04-24 13:23 48.96418 2.42152 150 ft 18 kts 67°
2026-04-24 13:23 48.96489 2.42408 157 ft 48 kts 68°
2026-04-24 13:23 48.96727 2.43269 179 ft 133 kts 66°
2026-04-24 13:24 48.97130 2.44786 510 ft 172 kts 66°
2026-04-24 13:24 48.97608 2.46662 944 ft 204 kts 67°
2026-04-24 13:24 48.98157 2.48626 1545 ft 200 kts 63°
2026-04-24 13:24 48.98818 2.50652 1444 ft 229 kts 70°
2026-04-24 13:25 48.98902 2.53188 1166 ft 249 kts 95°
2026-04-24 13:25 48.98695 2.55710 929 ft 239 kts 95°
2026-04-24 13:25 48.98459 2.58162 963 ft 230 kts 97°
2026-04-24 13:25 48.98229 2.60546 1056 ft 228 kts 96°
2026-04-24 13:26 48.97973 2.63000 1258 ft 238 kts 96°
2026-04-24 13:26 48.97712 2.65560 1746 ft 253 kts 97°
2026-04-24 13:26 48.97408 2.68235 2235 ft 248 kts 99°
2026-04-24 13:26 48.97098 2.70637 2713 ft 217 kts 98°
2026-04-24 13:27 48.96704 2.72706 3152 ft 204 kts 110°
2026-04-24 13:27 48.96085 2.74682 3634 ft 214 kts 113°
2026-04-24 13:27 48.95463 2.76818 4061 ft 228 kts 110°
2026-04-24 13:27 48.94902 2.79187 4189 ft 249 kts 102°
2026-04-24 13:28 48.94748 2.81854 4209 ft 250 kts 93°
2026-04-24 13:28 48.94594 2.84414 4216 ft 236 kts 95°
2026-04-24 13:28 48.94449 2.86841 4213 ft 227 kts 95°
2026-04-24 13:28 48.94295 2.89210 4204 ft 223 kts 94°
2026-04-24 13:29 48.94118 2.91541 4207 ft 219 kts 97°
2026-04-24 13:29 48.93940 2.93871 4502 ft 226 kts 94°
2026-04-24 13:29 48.93795 2.96222 5825 ft 231 kts 96°
2026-04-24 13:29 48.93605 2.98766 6839 ft 247 kts 97°
2026-04-24 13:30 48.93402 3.01360 8110 ft 253 kts 96°
2026-04-24 13:30 48.93209 3.04024 9320 ft 261 kts 96°
2026-04-24 13:30 48.92995 3.06793 10543 ft 268 kts 96°
2026-04-24 13:30 48.92781 3.09640 11648 ft 274 kts 96°
2026-04-24 13:31 48.92348 3.12490 12732 ft 281 kts 110°
2026-04-24 13:31 48.91565 3.15352 13398 ft 306 kts 111°
2026-04-24 13:31 48.90734 3.18490 13805 ft 333 kts 111°
2026-04-24 13:31 48.89864 3.21819 14574 ft 340 kts 111°
2026-04-24 13:32 48.88991 3.25171 15493 ft 343 kts 111°
2026-04-24 13:32 48.88111 3.28518 16321 ft 347 kts 112°
2026-04-24 13:32 48.87211 3.31941 17183 ft 351 kts 112°
2026-04-24 13:32 48.86297 3.35410 18034 ft 355 kts 113°
2026-04-24 13:33 48.85373 3.38912 18841 ft 359 kts 113°
2026-04-24 13:33 48.84441 3.42451 19603 ft 363 kts 114°
2026-04-24 13:33 48.83491 3.46032 20353 ft 368 kts 114°
2026-04-24 13:33 48.82532 3.49657 21127 ft 372 kts 114°
2026-04-24 13:34 48.81561 3.53332 21896 ft 377 kts 113°
2026-04-24 13:34 48.81007 3.57256 22651 ft 386 kts 97°
2026-04-24 13:34 48.80753 3.61332 23409 ft 389 kts 99°
2026-04-24 13:34 48.80472 3.65440 24091 ft 394 kts 98°
2026-04-24 13:35 48.80214 3.69550 24709 ft 398 kts 98°
2026-04-24 13:35 48.79946 3.73741 25300 ft 401 kts 98°
2026-04-24 13:35 48.79663 3.77966 25834 ft 405 kts 98°
2026-04-24 13:35 48.79379 3.82230 26351 ft 408 kts 98°
2026-04-24 13:36 48.79095 3.86531 26852 ft 411 kts 98°
2026-04-24 13:36 48.78808 3.90855 27318 ft 414 kts 98°
2026-04-24 13:36 48.78515 3.95221 27770 ft 417 kts 98°
2026-04-24 13:36 48.78214 3.99606 28198 ft 419 kts 98°
2026-04-24 13:37 48.77918 4.03996 28734 ft 418 kts 98°
2026-04-24 13:37 48.77585 4.08375 29286 ft 416 kts 102°
2026-04-24 13:37 48.76910 4.12617 29868 ft 412 kts 109°
2026-04-24 13:37 48.75897 4.16660 30426 ft 409 kts 117°
2026-04-24 13:38 48.74583 4.20400 30916 ft 405 kts 124°
2026-04-24 13:38 48.72993 4.23901 31379 ft 403 kts 128°
2026-04-24 13:38 48.71370 4.27357 31830 ft 402 kts 128°
2026-04-24 13:38 48.69754 4.30806 32304 ft 400 kts 128°
2026-04-24 13:39 48.68144 4.34234 32736 ft 399 kts 128°
2026-04-24 13:39 48.66532 4.37655 33105 ft 400 kts 128°
2026-04-24 13:39 48.63263 4.44583 33199 ft 413 kts 128°
2026-04-24 13:40 48.59886 4.51722 33192 ft 420 kts 128°
2026-04-24 13:40 48.56494 4.58871 33194 ft 418 kts 128°
2026-04-24 13:41 48.53087 4.66036 33195 ft 422 kts 128°
2026-04-24 13:41 48.49647 4.73255 33195 ft 425 kts 128°
2026-04-24 13:42 48.46209 4.80449 33193 ft 426 kts 128°
2026-04-24 13:42 48.42729 4.87708 33192 ft 428 kts 128°
2026-04-24 13:43 48.39236 4.94977 33188 ft 429 kts 128°
2026-04-24 13:43 48.35728 5.02256 33187 ft 429 kts 128°
2026-04-24 13:44 48.32214 5.09527 33184 ft 430 kts 128°
2026-04-24 13:44 48.29184 5.17288 33178 ft 435 kts 116°
2026-04-24 13:45 48.27277 5.25942 33177 ft 437 kts 110°
2026-04-24 13:45 48.25521 5.34628 33173 ft 438 kts 110°
2026-04-24 13:46 48.23760 5.43365 33175 ft 436 kts 110°
2026-04-24 13:46 48.21999 5.52039 33171 ft 434 kts 110°
2026-04-24 13:47 48.20238 5.60675 33172 ft 433 kts 110°
2026-04-24 13:47 48.18475 5.69287 33169 ft 432 kts 110°
2026-04-24 13:48 48.16717 5.77833 33170 ft 431 kts 110°
2026-04-24 13:48 48.14949 5.86404 33173 ft 431 kts 110°
2026-04-24 13:49 48.13174 5.94960 33174 ft 430 kts 110°
2026-04-24 13:49 48.11391 6.03518 33171 ft 431 kts 110°
2026-04-24 13:50 48.09601 6.12075 33171 ft 431 kts 110°
2026-04-24 13:50 48.07805 6.20631 33172 ft 431 kts 110°
2026-04-24 13:51 48.06003 6.29178 33161 ft 430 kts 110°
2026-04-24 13:51 48.04204 6.37666 33157 ft 431 kts 110°
2026-04-24 13:52 48.02387 6.46210 33156 ft 431 kts 110°
2026-04-24 13:52 48.00561 6.54755 33157 ft 431 kts 110°
2026-04-24 13:53 47.98733 6.63285 33153 ft 432 kts 110°
2026-04-24 13:53 47.96702 6.71662 33159 ft 430 kts 114°
2026-04-24 13:54 47.94476 6.79959 33161 ft 431 kts 113°
2026-04-24 13:54 47.92226 6.88236 33158 ft 431 kts 114°
2026-04-24 13:55 47.89972 6.96519 33161 ft 431 kts 114°
2026-04-24 13:55 47.87711 7.04795 33165 ft 431 kts 114°
2026-04-24 13:56 47.85444 7.13071 33163 ft 431 kts 114°
2026-04-24 13:56 47.83167 7.21336 33161 ft 432 kts 114°
2026-04-24 13:57 47.80908 7.29532 33164 ft 431 kts 114°
2026-04-24 13:57 47.78632 7.37742 33167 ft 431 kts 114°
2026-04-24 13:58 47.76231 7.45912 33167 ft 430 kts 120°
2026-04-24 13:58 47.72722 7.53074 33172 ft 428 kts 134°
2026-04-24 13:59 47.68158 7.58592 33174 ft 427 kts 148°
2026-04-24 13:59 47.62847 7.62548 33175 ft 427 kts 155°
2026-04-24 14:00 47.57484 7.66344 33177 ft 427 kts 154°
2026-04-24 14:00 47.52137 7.70085 33178 ft 427 kts 154°
2026-04-24 14:01 47.46763 7.73847 33171 ft 427 kts 154°
2026-04-24 14:01 47.41387 7.77603 33165 ft 427 kts 154°
2026-04-24 14:02 47.36006 7.81349 33166 ft 427 kts 154°
2026-04-24 14:02 47.30621 7.85094 33152 ft 428 kts 154°
2026-04-24 14:03 47.26144 7.88199 33154 ft 428 kts 154°
2026-04-24 14:03 47.20744 7.91935 33159 ft 428 kts 154°
2026-04-24 14:04 47.15369 7.95649 33156 ft 428 kts 154°
2026-04-24 14:04 47.09972 7.99365 33159 ft 429 kts 154°
2026-04-24 14:05 47.04562 8.03087 33160 ft 429 kts 154°
2026-04-24 14:05 46.99142 8.06806 33157 ft 430 kts 154°
2026-04-24 14:06 46.93751 8.10494 33157 ft 430 kts 154°
2026-04-24 14:06 46.88323 8.14203 33154 ft 431 kts 154°
2026-04-24 14:07 46.82881 8.17908 33150 ft 432 kts 154°
2026-04-24 14:07 46.77412 8.21628 33149 ft 432 kts 154°
2026-04-24 14:08 46.71954 8.25329 33149 ft 433 kts 154°
2026-04-24 14:08 46.66524 8.29007 33149 ft 433 kts 154°
2026-04-24 14:09 46.61045 8.32697 33148 ft 433 kts 153°
2026-04-24 14:09 46.55577 8.36391 33135 ft 434 kts 154°
2026-04-24 14:10 46.50096 8.40073 33131 ft 434 kts 153°
2026-04-24 14:10 46.44616 8.43750 33115 ft 434 kts 154°
2026-04-24 14:11 46.39128 8.47424 33102 ft 434 kts 154°
2026-04-24 14:12 46.30919 8.52903 33079 ft 435 kts 153°
2026-04-24 14:12 46.25418 8.56564 33066 ft 435 kts 153°
2026-04-24 14:13 46.19911 8.60223 33060 ft 436 kts 153°
2026-04-24 14:13 46.14402 8.63871 33055 ft 436 kts 153°
2026-04-24 14:14 46.08934 8.67665 33056 ft 435 kts 149°
2026-04-24 14:14 46.00980 8.73893 33055 ft 436 kts 149°
2026-04-24 14:15 45.96175 8.77664 33054 ft 436 kts 149°
2026-04-24 14:15 45.91110 8.81613 33056 ft 436 kts 149°
2026-04-24 14:16 45.85774 8.85764 33059 ft 436 kts 149°
2026-04-24 14:17 45.77795 8.91959 33057 ft 437 kts 149°
2026-04-24 14:17 45.69776 8.98165 33057 ft 437 kts 149°
2026-04-24 14:18 45.64641 9.02736 33052 ft 434 kts 140°
2026-04-24 14:18 45.60391 9.08793 33051 ft 431 kts 130°
2026-04-24 14:19 45.56356 9.15124 33057 ft 431 kts 130°
2026-04-24 14:19 45.52328 9.21444 33058 ft 431 kts 130°
2026-04-24 14:20 45.48290 9.27761 33057 ft 431 kts 130°
2026-04-24 14:20 45.44251 9.34069 33052 ft 431 kts 130°
2026-04-24 14:21 45.40221 9.40344 33055 ft 432 kts 130°
2026-04-24 14:21 45.36166 9.46648 33058 ft 432 kts 130°
2026-04-24 14:22 45.32114 9.52930 33058 ft 432 kts 130°
2026-04-24 14:23 45.26010 9.62367 33078 ft 432 kts 130°
2026-04-24 14:23 45.21954 9.68620 33061 ft 433 kts 130°
2026-04-24 14:24 45.17845 9.74937 33064 ft 433 kts 130°
2026-04-24 14:24 45.13798 9.81184 33064 ft 433 kts 130°
2026-04-24 14:25 45.09715 9.87457 33065 ft 433 kts 130°
2026-04-24 14:25 45.05624 9.93727 33062 ft 433 kts 130°
2026-04-24 14:26 45.01528 9.99990 33066 ft 433 kts 129°
2026-04-24 14:26 44.97434 10.06241 33067 ft 433 kts 130°
2026-04-24 14:27 44.93366 10.12436 33061 ft 433 kts 130°
2026-04-24 14:27 44.89262 10.18669 33059 ft 433 kts 130°
2026-04-24 14:28 44.85155 10.24893 33055 ft 432 kts 130°
2026-04-24 14:28 44.80750 10.30619 33054 ft 437 kts 140°
2026-04-24 14:29 44.75630 10.35305 33054 ft 438 kts 143°
2026-04-24 14:29 44.70509 10.39964 33060 ft 438 kts 144°
2026-04-24 14:30 44.66243 10.43807 33065 ft 438 kts 144°
2026-04-24 14:30 44.60280 10.49190 33068 ft 438 kts 144°
2026-04-24 14:31 44.55142 10.53810 33076 ft 438 kts 144°
2026-04-24 14:31 44.50001 10.58430 33079 ft 439 kts 144°
2026-04-24 14:32 44.44856 10.63039 33079 ft 439 kts 144°
2026-04-24 14:32 44.39671 10.67679 32460 ft 452 kts 144°
2026-04-24 14:32 44.36994 10.70072 31854 ft 451 kts 144°
2026-04-24 14:33 44.34426 10.72342 31308 ft 421 kts 144°
2026-04-24 14:33 44.32028 10.74477 30817 ft 397 kts 143°
2026-04-24 14:33 44.29786 10.76477 30354 ft 377 kts 143°
2026-04-24 14:33 44.27622 10.78408 29866 ft 361 kts 143°
2026-04-24 14:34 44.25543 10.80252 29417 ft 346 kts 143°
2026-04-24 14:34 44.23542 10.82025 28992 ft 335 kts 143°
2026-04-24 14:34 44.21588 10.83751 28569 ft 329 kts 143°